Aberdeen, SD

12:57 PM CST on February 12, 2016 (GMT -0600)
Aberdeen Regional

Weather History for KABR - May, 2013

Change the Weather History Date:

Wednesday, May 8, 2013

  Actual Average Record
Temperature  
Mean Temperature 59 °F 54 °F  
Max Temperature 72 °F 67 °F 105 °F (1934)
Min Temperature 45 °F 41 °F 22 °F (1945)
Degree Days  
Heating Degree Days 6 11  
Month to date heating degree days 147 100  
Since 1 July heating degree days 8852 8271  
Cooling Degree Days 0 0  
Month to date cooling degree days 0 0  
Year to date cooling degree days 0 2  
Growing Degree Days 8 (Base 50)    
Moisture  
Dew Point 46 °F    
Average Humidity 65    
Maximum Humidity 86    
Minimum Humidity 44    
Precipitation  
Precipitation 0.00 in 0.10 in 3.37 in (1945)
Month to date precipitation 0.10 0.81  
Year to date precipitation 4.30 4.84  
Sea Level Pressure  
Sea Level Pressure 29.98 in    
Wind  
Wind Speed 8 mph (East)    
Max Wind Speed 23 mph    
Max Gust Speed 31 mph    
Visibility 10 miles    
Events      
T = Trace of Precipitation, MM = Missing Value Source: NWS Daily Summary

Daily Weather History Graph

Daily Weather History Graph

Search for Another Location

Airport or City:

Trip Planner

Search our weather history database for the weather conditions in past years. The results will help you decide how hot, cold, wet, or windy it might be!

Date:

Astronomy

May. 08, 2013 Rise Set
Actual Time 6:11 AM CDT 8:49 PM CDT
Civil Twilight 5:37 AM CDT 9:23 PM CDT
Nautical Twilight 4:55 AM CDT 10:05 PM CDT
Astronomical Twilight 4:06 AM CDT 10:55 PM CDT
Moon 5:24 AM CDT (5/8) 7:46 PM CDT (5/8)
Length of Visible Light 15h 45m
Length of Day
14h 37m
Waning Crescent, 2% of the Moon is Illuminated
May 8
Waning Crescent
May 9
New
May 17
First Quarter
May 24
Full
May 31
Last Quarter

Hourly Weather History & Observations

Time (CDT) Temp. Windchill Dew Point Humidity Pressure Visibility Wind Dir Wind Speed Gust Speed Precip Events Conditions
12:53 AM 50.0 °F - 42.1 °F 74% 29.94 in 10.0 mi SSE 5.8 mph - N/A   Clear
1:53 AM 46.9 °F - 41.0 °F 80% 29.94 in 10.0 mi SSE 6.9 mph - N/A   Clear
2:53 AM 50.0 °F - 45.0 °F 83% 29.94 in 10.0 mi SSE 6.9 mph - N/A   Overcast
3:53 AM 48.9 °F - 44.1 °F 83% 29.92 in 10.0 mi South 3.5 mph - N/A   Partly Cloudy
4:53 AM 48.9 °F - 44.1 °F 83% 29.93 in 10.0 mi Calm Calm - N/A   Partly Cloudy
5:53 AM 46.0 °F - 42.1 °F 86% 29.94 in 10.0 mi Calm Calm - N/A   Mostly Cloudy
6:53 AM 46.0 °F 43.1 °F 43.0 °F 89% 29.95 in 10.0 mi SE 5.8 mph - N/A   Partly Cloudy
7:39 AM 50.0 °F - 44.6 °F 82% 29.97 in 10.0 mi NE 3.5 mph - N/A   Partly Cloudy
7:53 AM 50.0 °F - 45.0 °F 83% 29.97 in 8.0 mi Calm Calm - N/A   Clear
8:53 AM 55.9 °F - 46.0 °F 69% 29.98 in 10.0 mi Calm Calm - N/A   Mostly Cloudy
9:53 AM 62.1 °F - 48.9 °F 62% 29.99 in 10.0 mi South 5.8 mph - N/A   Clear
10:53 AM 64.9 °F - 50.0 °F 58% 29.99 in 10.0 mi Calm Calm - N/A   Partly Cloudy
11:53 AM 68.0 °F - 48.9 °F 50% 29.99 in 10.0 mi Variable 3.5 mph - N/A   Partly Cloudy
12:53 PM 70.0 °F - 48.9 °F 47% 29.99 in 10.0 mi ESE 10.4 mph - N/A   Scattered Clouds
1:53 PM 71.1 °F - 48.0 °F 44% 29.97 in 10.0 mi Variable 6.9 mph - N/A   Mostly Cloudy
2:53 PM 69.1 °F - 48.0 °F 47% 29.98 in 10.0 mi SE 8.1 mph - N/A   Overcast
3:53 PM 68.0 °F - 46.9 °F 47% 29.98 in 10.0 mi East 9.2 mph - N/A   Mostly Cloudy
4:53 PM 69.1 °F - 46.9 °F 45% 29.97 in 10.0 mi ENE 12.7 mph - N/A   Mostly Cloudy
5:53 PM 68.0 °F - 46.9 °F 47% 29.99 in 10.0 mi ENE 13.8 mph - N/A   Scattered Clouds
6:53 PM 68.0 °F - 48.0 °F 49% 29.99 in 10.0 mi ENE 13.8 mph - N/A   Overcast
7:53 PM 66.0 °F - 48.0 °F 52% 30.00 in 10.0 mi ENE 12.7 mph - N/A   Overcast
8:53 PM 61.0 °F - 48.9 °F 64% 30.02 in 10.0 mi ENE 8.1 mph - N/A   Mostly Cloudy
9:53 PM 57.0 °F - 46.9 °F 69% 30.04 in 10.0 mi NNE 5.8 mph - N/A   Partly Cloudy
10:53 PM 57.0 °F - 46.9 °F 69% 30.05 in 10.0 mi NNE 15.0 mph - N/A   Partly Cloudy
11:53 PM 55.9 °F - 39.9 °F 55% 30.07 in 10.0 mi NNE 20.7 mph 26.5 mph N/A   Clear